GFSFLT2_sfc_rhum_000.txt.gz
RH
75 74 85 92 85 84 76 78 76 80 77 80 83 82 82 85 88 86 82 75 73 75 70 68 62 62 63
79 82 83 85 87 85 86 86 85 82 85 82 85 87 86 88 90 89 84 80 77 74 68 63 62 63 62
86 82 85 85 98 94 90 91 92 90 87 88 88 89 89 92 90 88 88 85 82 76 69 65 64 64 62
86 82 81 82 98 95 97 95 93 93 90 88 89 91 92 94 94 94 93 88 80 76 70 67 66 65 63
88 86 89 88 96 94 97 95 97 96 97 95 97 98 98 96 95 94 89 86 86 81 71 66 66 65 64
91 91 88 89 88 92 96 98 98 98 98 96 98 99 99 98 93 94 91 89 86 75 68 65 66 66 64
94 88 88 84 90 94 90 97 93 99 96 99 99 99 99 98 94 92 90 88 79 73 68 67 66 64 63
85 85 84 86 90 94 96 98 99 99 95 99 98 98 98 98 93 91 87 82 79 70 68 67 66 64 63
84 86 87 88 89 96 98 99 99 99 99 96 99 98 99 99 98 96 91 83 68 64 64 66 66 65 65
86 86 88 90 95 98 98 99 100 99 98 96 97 96 97 98 99 99 89 67 61 62 63 64 65 82 88
96 95 97 98 97 99 99 100 100 100 97 95 98 97 97 96 95 88 62 64 70 66 61 65 65 72 85
97 97 98 97 99 99 100 100 99 98 98 99 98 97 97 94 87 68 71 70 65 65 65 59 60 59 61
97 98 99 99 99 99 99 98 98 98 98 98 96 98 97 94 85 79 70 74 81 79 81 79 74 70 68
97 97 98 99 98 98 98 98 97 97 98 97 97 97 95 91 87 90 92 79 88 90 84 80 75 73 72
98 97 98 98 97 98 98 98 97 97 97 96 94 92 92 95 98 90 92 92 90 93 92 84 80 76 76
96 97 98 98 97 98 98 98 96 96 96 96 97 93 88 85 86 92 94 93 93 92 89 89 81 77 74
97 97 98 98 98 97 98 97 97 96 97 97 98 96 92 82 87 79 87 94 94 92 89 86 82 77 75

GFSFLT2_sfc_rhum_003.txt.gz
RH
72 72 78 82 81 90 90 86 80 83 86 87 88 90 88 84 83 79 79 78 79 83 84 81 78 77 73
77 77 75 74 77 85 89 91 91 84 84 86 87 88 91 92 85 84 83 83 80 84 84 83 80 80 73
84 78 77 76 81 82 95 95 96 93 91 90 87 87 93 93 90 88 87 89 90 87 87 88 88 78 74
81 80 78 76 82 96 94 99 97 92 91 90 88 90 94 93 90 90 93 94 95 94 94 92 87 83 76
82 81 81 82 85 84 88 86 91 96 94 95 96 96 94 92 91 98 97 94 94 95 94 92 90 84 76
82 86 83 84 84 88 90 92 93 97 98 96 97 96 95 96 95 96 96 95 94 93 92 90 86 83 76
87 89 86 82 83 87 83 92 97 89 99 98 100 98 99 99 97 97 96 95 93 92 91 88 82 80 79
81 86 83 84 89 90 91 92 94 94 98 98 99 99 99 99 96 94 92 90 91 90 87 86 86 84 76
77 80 78 80 86 93 93 97 97 97 99 99 99 99 100 100 99 92 90 90 88 90 92 93 80 73 69
82 83 80 85 85 95 98 98 98 99 99 99 98 96 98 97 99 99 98 96 96 96 93 79 74 73 83
88 86 85 87 90 94 98 99 98 98 96 97 99 98 98 96 97 98 98 99 97 93 74 68 65 78 84
93 93 92 94 97 98 98 99 99 99 99 100 98 98 97 97 96 95 95 93 77 67 68 67 66 72 75
95 93 97 98 99 98 99 99 98 98 98 99 98 98 98 97 95 95 93 79 62 65 67 68 71 72 79
95 96 94 92 97 98 98 99 98 97 97 98 98 98 97 96 94 95 90 87 80 76 75 78 76 69 68
96 96 93 91 95 98 98 98 98 97 97 97 97 96 95 95 95 88 85 82 82 86 84 81 78 76 74
95 95 96 96 97 98 98 98 97 97 97 97 97 95 91 84 80 84 88 88 91 90 86 82 81 80 78
96 97 97 96 97 98 98 97 97 96 97 97 96 90 82 80 79 74 84 90 92 94 93 91 87 80 78

GFSFLT2_sfc_rhum_006.txt.gz
RH
54 51 63 72 73 74 72 74 74 82 85 85 85 86 87 89 93 95 94 90 84 78 78 77 78 83 89
65 65 74 70 72 77 72 71 79 79 83 85 90 89 89 90 90 92 94 96 92 87 80 77 79 87 87
80 74 74 71 78 75 72 70 73 84 89 93 91 91 90 89 90 89 92 95 96 95 94 87 82 88 89
81 79 78 73 77 80 78 76 77 70 76 80 88 90 89 90 90 90 94 96 95 94 94 91 87 90 90
87 77 77 81 84 78 84 82 80 78 82 83 88 93 94 90 90 92 92 92 92 93 94 93 91 95 93
82 80 78 76 82 87 88 90 91 77 93 92 90 92 89 93 89 90 90 90 93 93 92 95 97 96 94
76 79 78 79 94 88 82 92 92 79 83 89 85 94 85 88 89 91 92 91 93 94 97 96 95 94 93
78 91 84 92 79 81 92 97 96 92 88 98 89 96 98 98 95 94 93 91 95 96 95 94 94 91 90
71 71 72 71 75 87 97 98 96 96 92 98 94 99 99 99 99 95 95 96 95 92 91 91 90 88 89
80 81 74 74 76 92 98 99 98 97 99 100 99 97 98 96 99 100 98 92 91 90 89 89 90 96 97
82 85 81 84 93 97 98 100 98 98 85 98 100 99 98 96 97 97 99 99 98 95 92 93 94 91 95
87 87 88 85 89 89 92 98 98 98 96 97 99 98 98 97 97 97 97 98 99 99 98 94 92 87 80
90 90 86 87 93 87 92 95 98 98 97 98 99 99 99 98 96 96 96 96 97 97 97 92 90 90 87
93 89 85 88 93 89 97 96 98 98 98 98 98 98 98 97 96 96 96 96 96 96 92 84 77 73 76
89 88 88 93 92 88 97 98 98 98 97 97 97 97 97 98 96 96 95 94 94 90 82 78 70 64 64
89 91 92 95 93 94 98 98 98 97 97 97 97 95 94 93 94 94 90 88 86 77 67 71 73 73 69
94 94 94 96 95 96 97 98 97 96 97 97 96 96 91 91 87 78 82 83 81 82 80 77 73 73 69

GFSFLT2_sfc_rhum_009.txt.gz
RH
54 53 49 50 50 54 54 50 56 70 71 72 71 77 84 87 88 86 88 88 89 90 89 88 86 84 82
69 56 55 56 58 62 55 54 58 60 65 74 71 71 77 82 86 89 89 90 90 91 94 94 89 90 87
70 56 60 58 62 62 63 62 57 64 62 67 69 70 73 75 82 91 91 92 92 92 92 94 94 92 92
69 63 59 58 62 65 67 62 66 57 68 71 69 71 76 82 84 91 94 93 93 92 92 96 95 92 91
70 72 66 64 68 65 73 72 76 82 71 69 70 74 83 74 84 92 93 91 91 91 90 94 93 92 93
75 73 70 72 70 82 83 92 96 68 79 83 75 76 72 73 74 81 86 87 86 88 91 92 92 90 92
75 84 76 77 92 96 97 88 84 72 84 92 89 92 82 77 80 82 84 88 88 89 90 91 93 93 92
62 65 69 73 70 76 80 89 89 80 82 98 85 89 88 89 88 88 86 85 88 92 93 91 92 94 94
61 64 66 68 68 78 94 95 89 83 83 91 96 98 98 96 93 87 91 89 86 89 92 93 96 96 97
64 66 68 70 71 76 97 98 96 91 86 93 90 92 97 88 96 95 97 97 94 96 94 94 92 95 97
73 73 73 72 76 78 97 98 98 95 82 94 93 87 94 94 92 96 98 99 97 96 93 93 90 90 96
80 80 81 83 83 85 88 98 98 99 98 97 95 91 96 95 93 96 97 98 98 98 97 91 91 91 90
85 86 84 86 88 88 88 97 94 100 100 95 96 94 97 95 92 91 97 97 99 98 98 98 98 97 98
89 86 83 85 86 84 95 90 95 90 99 95 96 96 93 94 93 92 94 94 97 97 96 98 98 97 93
85 86 85 84 85 84 95 95 96 94 94 93 95 96 95 97 94 93 92 92 96 95 93 94 94 95 85
88 88 90 92 92 94 96 97 95 94 94 94 93 94 94 95 95 92 91 91 93 95 94 89 92 93 83
93 93 93 92 93 95 95 95 94 94 94 92 91 90 94 92 92 90 87 90 90 89 79 72 78 73 62

GFSFLT2_sfc_rhum_012.txt.gz
RH
41 38 36 37 34 35 40 40 38 51 54 60 61 68 71 76 72 75 79 79 80 81 82 82 81 83 91
47 43 43 42 41 40 34 32 38 44 52 54 58 65 71 72 77 71 75 76 84 88 87 84 84 84 91
60 51 49 44 48 48 44 40 36 54 54 54 58 64 66 72 72 72 75 82 82 88 91 91 90 87 85
65 61 56 51 46 50 51 50 55 46 54 60 62 69 64 66 73 76 84 83 88 90 92 92 93 92 89
71 65 54 52 56 55 62 60 64 59 69 60 58 63 64 64 67 74 75 75 87 87 85 87 88 89 94
72 64 56 56 54 62 72 77 83 58 61 67 62 71 63 61 70 76 80 79 80 85 84 86 85 89 90
65 64 63 62 66 81 84 80 76 62 70 84 71 80 67 62 68 70 80 85 83 84 85 85 84 86 90
50 61 72 66 62 65 78 84 82 74 74 97 78 78 73 90 90 82 81 84 84 86 87 87 85 87 92
62 60 60 62 65 75 90 91 87 79 76 92 87 92 90 80 76 76 84 87 90 92 87 84 87 90 93
54 54 58 61 66 71 88 96 92 90 80 96 87 88 87 83 91 84 78 84 97 96 94 90 91 97 99
61 64 64 66 70 72 80 93 95 93 79 92 95 91 87 87 82 84 96 96 98 97 96 94 91 91 97
73 74 76 79 81 81 83 86 87 93 89 100 98 92 91 87 84 83 96 98 99 98 97 91 91 90 88
82 83 81 83 86 85 87 87 88 94 100 100 97 94 95 92 88 92 97 98 99 98 98 98 98 95 97
86 84 82 83 84 82 93 89 94 93 100 99 97 96 94 94 95 95 96 98 98 98 98 98 98 97 97
89 87 83 83 86 87 92 95 97 95 94 94 97 97 97 98 95 94 92 95 98 98 96 97 98 97 97
87 88 92 92 93 93 95 97 95 94 94 94 94 94 94 93 95 92 92 94 97 98 88 86 93 97 96
93 93 93 94 94 95 95 94 94 94 92 90 89 94 95 93 92 95 90 94 94 93 85 82 85 95 97

GFSFLT2_sfc_rhum_015.txt.gz
RH
41 42 46 45 42 43 45 44 41 48 49 49 49 53 55 57 60 59 61 65 66 69 67 72 76 77 80
51 52 49 48 47 49 41 34 40 45 48 48 52 56 55 58 64 67 69 70 72 66 67 70 72 78 80
63 54 53 54 55 48 42 42 36 50 51 50 50 57 59 62 63 66 71 73 73 71 79 82 77 77 81
63 66 64 58 56 55 52 47 51 40 48 53 55 55 62 60 63 63 70 69 67 71 76 77 87 87 84
79 79 72 62 62 56 57 58 60 58 62 58 58 62 59 56 58 66 67 64 66 71 76 75 84 87 84
94 91 66 60 52 63 74 83 85 58 64 65 60 63 61 61 63 65 62 66 67 69 72 78 84 85 86
69 71 60 61 75 88 86 75 72 62 74 81 75 79 72 57 61 63 69 77 76 76 79 86 86 86 85
53 54 62 68 70 61 69 87 84 78 71 95 83 93 72 73 65 71 64 77 83 88 87 87 89 88 86
58 58 58 58 60 66 92 93 89 83 75 83 88 89 83 83 71 72 90 73 83 82 77 81 84 84 83
58 56 57 60 63 69 84 96 94 92 78 89 90 89 94 80 90 80 77 80 86 97 93 92 89 92 92
60 65 65 67 70 72 77 92 95 94 80 84 95 93 93 93 87 89 85 97 97 97 97 96 94 93 97
74 77 78 80 80 81 82 84 85 89 85 90 97 96 97 94 89 84 84 98 99 98 98 94 94 93 91
89 86 83 84 85 86 89 88 87 86 88 92 98 98 97 96 93 88 95 99 100 99 98 98 98 95 96
88 86 82 85 88 90 96 93 96 90 99 99 98 98 97 94 94 94 98 99 99 100 98 98 97 98 96
90 90 88 89 91 92 94 96 97 97 96 94 95 97 98 98 98 98 99 99 99 100 98 98 99 98 98
90 92 94 94 94 93 96 97 97 96 96 96 96 94 97 96 96 98 98 99 99 100 98 97 98 99 98
94 94 94 94 95 96 95 96 95 90 92 94 96 96 97 96 97 95 98 98 97 96 96 98 98 99 98

GFSFLT2_sfc_rhum_018.txt.gz
RH
46 44 49 52 47 48 49 49 48 53 50 50 49 48 50 51 54 54 57 55 57 56 60 60 58 70 63
58 61 56 54 52 54 51 44 49 47 50 50 50 51 54 53 51 52 59 56 59 65 64 70 72 71 64
71 65 62 58 61 59 58 52 42 47 49 53 54 55 56 55 56 56 59 62 70 66 61 72 67 65 64
77 82 66 68 81 74 62 52 50 42 53 57 59 57 58 57 57 58 60 59 58 60 62 66 67 72 69
92 79 82 70 72 64 62 59 62 60 66 58 56 58 59 62 61 62 62 62 64 70 73 66 69 68 76
84 74 63 63 70 69 72 80 89 65 62 67 64 68 67 64 69 64 77 64 60 61 66 67 66 74 72
64 66 76 86 83 84 92 93 86 68 75 82 70 81 74 61 64 67 73 76 64 63 71 70 68 68 75
55 64 74 62 60 60 68 82 84 76 73 91 83 77 66 70 70 68 68 68 78 96 87 87 87 82 84
73 67 59 59 59 63 91 94 88 81 76 85 88 84 80 80 74 72 89 81 70 70 72 74 80 80 79
59 58 61 64 66 70 82 96 92 91 78 90 90 92 93 79 87 81 85 82 74 83 83 84 84 85 87
63 68 70 74 74 76 80 94 96 94 80 84 96 93 95 94 86 94 89 88 94 97 98 98 95 89 90
76 83 80 84 84 83 84 87 88 94 93 96 97 97 96 95 90 83 84 91 98 99 99 96 94 94 92
90 88 88 89 89 90 89 87 88 89 95 97 98 98 99 98 96 92 93 91 98 99 98 98 99 99 97
93 90 88 90 91 92 95 92 95 95 94 93 96 98 99 97 96 95 94 98 98 99 99 98 98 97 98
93 92 89 89 89 88 94 94 96 97 94 92 89 93 97 98 97 96 98 98 99 99 98 98 98 98 96
91 91 93 94 93 89 90 90 91 90 94 96 94 92 98 98 90 97 98 98 98 99 99 97 98 99 96
94 94 94 93 90 94 95 94 90 91 92 96 96 96 95 96 96 99 97 98 98 98 98 98 98 99 97

GFSFLT2_sfc_rhum_021.txt.gz
RH
48 47 50 58 50 52 54 52 51 59 57 57 53 52 51 51 52 53 54 57 57 56 55 60 67 66 63
57 66 65 56 58 62 52 51 63 67 56 54 53 52 52 54 54 55 57 54 55 57 60 54 57 70 71
82 62 65 71 80 84 64 59 50 52 53 54 53 56 58 60 57 55 55 56 57 56 56 64 78 73 64
74 88 71 74 78 58 56 55 61 47 52 56 60 63 58 58 59 59 60 62 62 60 57 63 63 63 59
93 91 71 63 62 59 66 89 68 64 64 70 65 58 60 64 63 64 65 65 72 75 69 65 70 65 68
95 79 66 65 64 77 84 89 90 64 68 70 63 67 65 64 65 67 65 60 62 65 76 70 64 62 61
69 72 72 68 90 95 86 83 84 74 73 81 68 75 68 56 67 63 63 67 70 71 68 65 63 59 61
63 61 77 75 60 59 71 86 84 74 68 89 74 75 66 65 68 67 73 75 83 78 79 86 82 76 72
73 68 60 61 62 70 93 94 88 78 73 84 86 86 81 79 68 72 71 71 71 69 68 67 67 66 67
57 59 62 64 69 72 89 96 93 92 74 90 92 90 93 81 84 82 75 75 74 80 78 74 74 73 79
65 67 69 72 71 76 89 97 95 94 80 89 95 92 94 93 85 84 86 87 84 92 97 97 90 83 86
78 80 80 85 88 90 91 94 94 96 94 97 97 97 96 94 90 82 85 92 98 97 98 97 98 96 85
88 87 86 90 92 92 91 88 88 88 93 98 98 97 97 96 95 91 94 90 96 99 99 100 99 99 97
92 87 87 92 93 92 95 93 95 86 81 88 97 98 96 96 98 94 95 97 95 98 98 98 97 98 99
92 91 89 90 91 88 94 94 96 95 92 89 87 89 96 98 97 96 96 97 98 99 99 98 98 98 98
90 90 94 94 94 92 91 96 96 94 95 95 95 91 94 94 97 97 97 98 99 99 99 97 98 98 97
93 94 94 92 90 93 94 95 94 94 95 96 96 97 96 96 93 99 97 97 98 97 98 98 98 98 97

GFSFLT2_sfc_rhum_024.txt.gz
RH
52 51 58 61 56 56 57 56 63 68 59 56 54 53 54 56 56 54 54 54 57 62 61 63 63 64 62
75 70 58 54 56 74 69 56 67 52 54 55 56 54 53 54 54 55 58 60 66 73 69 63 60 60 61
68 60 60 68 77 69 53 48 40 50 54 57 58 58 59 63 67 64 70 57 56 56 57 57 58 64 60
78 88 78 88 67 62 58 56 56 48 68 61 62 61 62 61 60 59 60 62 62 61 59 63 62 59 58
78 81 82 66 66 63 66 65 73 78 62 60 59 61 60 63 62 63 64 64 65 66 67 71 74 76 70
94 74 70 67 67 72 82 93 79 60 65 69 66 66 63 63 66 67 66 65 64 70 75 66 63 66 69
76 75 73 75 94 92 82 82 86 73 75 79 67 70 63 56 66 66 66 66 66 72 78 77 77 76 75
59 65 77 66 60 65 80 91 87 72 65 92 74 77 68 66 70 71 70 69 70 75 83 84 80 73 70
72 64 62 63 66 80 92 93 87 76 70 84 85 86 82 80 71 74 72 71 68 69 74 75 76 89 90
59 59 63 65 70 72 94 96 94 91 72 91 90 89 94 79 84 82 73 74 71 78 87 84 78 78 89
66 69 69 70 70 78 92 97 95 94 78 89 95 92 95 92 82 80 82 83 84 93 95 98 97 96 96
80 79 81 87 88 89 91 94 93 96 94 96 97 97 96 92 89 81 82 85 97 96 97 97 98 98 95
87 87 88 90 92 92 89 87 87 88 95 97 98 96 96 95 94 90 92 86 88 98 98 99 99 97 94
91 87 84 86 87 91 95 91 95 88 82 86 94 98 96 95 96 94 89 97 95 98 98 99 98 98 96
90 90 86 86 88 86 94 95 95 95 92 87 88 91 93 97 96 91 95 96 98 98 98 98 98 98 98
89 88 92 94 93 90 91 95 96 94 95 94 95 91 94 92 94 96 97 97 98 99 98 98 97 98 97
90 94 94 93 90 92 91 93 93 95 94 95 96 96 96 95 91 95 98 98 98 97 98 98 98 98 97

GFSFLT2_sfc_rhum_027.txt.gz
RH
59 58 60 56 51 51 54 54 61 77 62 56 54 54 54 54 62 65 64 62 63 64 62 63 66 64 60
76 60 56 54 56 61 67 91 66 55 56 55 55 56 57 62 59 59 63 63 62 60 60 61 65 68 68
72 64 64 69 72 78 64 53 43 51 56 58 60 61 62 60 61 63 66 70 70 73 76 72 64 62 61
80 85 71 82 81 63 58 55 58 49 57 68 65 60 60 61 61 59 59 61 61 62 62 60 61 63 63
80 90 78 64 64 62 66 68 77 86 67 58 59 59 61 64 64 64 65 66 65 66 68 70 72 71 68
85 76 70 69 66 73 93 86 87 61 64 77 67 66 63 63 66 67 67 66 66 71 77 78 76 74 72
73 74 70 73 95 94 88 88 84 70 76 88 68 70 63 56 67 69 69 68 68 68 69 72 74 70 68
60 68 80 69 61 67 84 92 84 68 63 92 73 76 67 66 72 72 72 70 68 67 67 66 68 77 80
75 66 63 65 69 86 92 93 86 74 68 82 82 85 80 77 68 73 70 66 64 66 68 67 69 69 76
60 61 65 67 70 72 95 96 93 91 73 90 89 90 92 77 82 75 72 74 72 72 79 80 78 83 96
69 69 70 69 70 74 89 97 95 94 77 88 95 90 93 91 80 79 79 80 78 84 93 96 97 97 97
80 81 81 84 84 85 86 91 94 97 93 96 96 96 95 92 88 81 81 85 90 94 94 94 97 98 97
88 87 86 87 88 87 86 86 86 87 91 95 97 95 97 96 94 89 94 86 87 97 97 98 98 98 97
89 86 84 86 88 86 92 90 94 86 81 85 96 98 96 93 96 94 91 97 95 97 98 98 98 99 92
89 90 87 87 87 85 91 93 94 92 91 87 86 89 94 97 96 91 95 97 98 98 98 98 98 99 98
89 89 92 92 92 88 89 93 95 92 94 93 93 91 85 90 92 96 96 98 98 98 98 99 96 97 98
92 93 94 92 90 91 91 92 92 91 94 95 96 96 94 94 89 83 98 97 98 95 98 98 98 97 99

GFSFLT2_sfc_rhum_030.txt.gz
RH
62 59 65 62 53 54 56 55 58 71 81 62 58 55 55 57 62 65 64 66 67 68 72 73 67 70 69
75 68 62 60 61 67 66 69 73 69 57 56 56 56 57 58 63 66 65 64 63 64 64 65 63 64 65
73 66 67 66 81 78 62 55 44 52 57 59 60 61 63 66 66 65 64 67 70 67 64 65 68 71 72
74 79 88 78 64 62 60 58 58 50 61 64 64 63 63 61 62 60 60 62 63 63 63 64 63 62 62
88 84 72 65 68 63 66 68 78 66 61 60 62 61 61 66 64 65 66 67 66 67 69 70 73 73 70
82 72 70 68 66 73 92 85 86 62 69 76 69 68 64 62 66 67 67 67 66 66 65 72 71 70 73
70 71 71 72 95 94 86 86 84 72 76 87 68 69 60 54 66 68 69 69 68 69 71 77 74 72 68
63 69 86 71 64 68 90 92 84 68 62 93 71 73 65 62 70 70 70 69 68 70 74 75 76 75 73
74 67 65 67 69 79 91 93 87 74 67 80 80 82 77 75 66 72 67 65 66 68 69 68 67 68 69
61 63 66 68 71 71 85 96 92 91 71 91 89 89 91 74 84 71 71 73 73 74 76 78 82 89 95
68 69 70 72 71 76 82 96 95 94 77 89 94 90 94 92 80 80 78 78 82 87 88 94 98 98 97
78 81 82 85 85 86 86 88 88 96 93 96 96 96 95 91 88 81 80 84 90 92 93 90 93 96 97
88 87 87 88 89 88 86 86 86 86 89 90 97 95 96 95 94 90 95 88 87 93 93 97 98 97 98
90 86 86 87 88 86 94 90 94 86 81 84 92 98 96 92 97 94 91 96 95 98 98 98 97 98 98
90 90 87 87 88 86 91 93 94 92 90 84 85 88 91 96 96 89 95 96 98 98 98 97 98 98 97
89 90 92 92 92 89 90 94 95 91 93 91 91 90 83 89 83 97 91 97 97 98 97 98 96 98 95
92 92 94 93 91 92 92 92 92 90 94 91 94 96 94 94 89 73 98 97 97 97 97 98 98 99 97

GFSFLT2_sfc_rhum_033.txt.gz
RH
48 47 48 48 43 45 50 50 50 62 61 60 59 58 58 59 61 63 65 65 64 66 68 70 74 74 72
59 55 48 47 50 58 54 51 45 51 58 59 60 61 61 61 61 61 61 63 64 71 70 67 68 67 63
62 53 56 60 60 51 42 41 37 52 58 60 62 63 64 64 63 62 62 62 65 63 64 64 67 70 70
66 84 63 58 53 52 51 49 50 45 58 60 62 62 63 64 64 63 63 64 64 64 63 66 70 72 66
84 73 64 54 54 52 57 60 64 57 53 52 50 52 54 62 61 64 66 67 67 67 68 69 69 69 69
79 63 54 53 55 64 82 79 82 52 54 60 54 55 52 51 62 65 66 66 67 67 69 70 69 72 72
60 59 62 61 90 93 81 76 75 61 65 72 54 56 50 45 63 66 68 69 69 70 71 70 74 73 72
56 60 76 75 61 63 75 83 75 58 54 84 59 61 55 53 66 69 69 69 70 70 71 71 72 70 70
70 70 65 66 67 74 86 89 82 65 60 70 67 73 69 66 56 63 64 66 71 76 81 83 82 79 76
51 52 57 58 69 62 85 95 91 87 59 82 83 81 87 60 68 64 60 68 73 74 78 85 91 93 96
55 56 59 60 59 65 76 96 95 92 70 86 92 87 90 87 76 75 74 73 82 85 82 81 83 95 97
66 74 76 80 81 82 84 88 86 95 91 95 96 95 95 90 84 76 77 83 91 98 94 84 84 86 95
81 85 83 86 89 88 87 86 88 87 89 90 96 95 96 95 93 86 86 87 89 95 97 98 98 97 98
84 80 81 86 86 85 91 90 92 86 82 85 96 98 96 90 93 91 88 96 96 98 97 97 97 97 98
85 85 82 83 85 84 89 92 94 92 89 83 86 88 89 94 93 86 85 93 96 98 98 97 93 98 90
85 86 90 90 91 88 89 93 94 90 91 89 88 89 83 82 69 91 90 90 95 98 98 98 96 98 80
92 90 91 91 89 91 90 90 90 88 89 88 92 95 92 90 75 69 97 94 95 96 97 97 99 99 95

GFSFLT2_sfc_rhum_036.txt.gz
RH
36 35 38 38 34 36 41 42 39 51 54 55 57 59 61 61 62 63 65 69 71 70 70 70 69 67 66
46 45 42 39 43 48 37 31 33 42 52 56 59 60 61 62 63 64 64 65 67 70 70 70 71 71 68
58 45 45 52 48 44 38 36 31 46 51 55 59 61 63 63 62 62 62 63 64 65 65 64 66 71 67
59 65 74 55 45 43 42 43 44 39 50 53 56 57 60 60 60 61 63 64 64 65 66 65 66 68 67
73 83 61 49 42 43 49 52 58 53 48 48 45 47 50 56 56 59 59 62 64 66 68 71 70 69 68
83 61 47 42 46 57 73 85 74 49 50 57 51 50 48 48 56 59 62 64 66 66 67 68 70 71 73
59 49 49 52 79 92 76 70 69 57 61 67 50 50 47 41 59 62 65 67 69 71 72 72 72 72 72
47 49 61 70 67 59 69 76 71 58 52 78 56 59 52 51 63 65 66 66 68 72 77 79 79 78 74
58 68 68 61 61 67 84 87 82 65 58 66 65 71 68 66 55 56 59 63 69 72 78 82 89 91 87
55 45 48 49 60 57 75 95 90 88 59 79 81 77 84 61 68 64 58 66 68 69 72 83 90 90 96
46 47 49 53 54 59 71 94 95 92 68 83 92 85 88 85 75 76 73 72 72 77 78 79 80 89 97
57 65 71 76 78 79 81 86 85 93 86 91 96 94 95 90 83 76 78 82 89 93 96 95 96 92 86
77 81 80 83 87 87 86 86 87 87 88 87 95 95 95 94 91 85 88 87 89 94 96 98 98 97 98
79 75 77 84 84 83 90 87 91 86 83 85 90 96 95 90 89 88 86 95 91 95 97 94 97 95 97
82 83 79 81 83 83 88 91 93 88 86 84 86 88 91 94 94 87 84 88 91 92 97 97 92 97 95
84 84 89 88 89 87 87 92 94 86 86 86 88 87 83 80 73 88 86 90 90 92 98 98 95 92 93
90 89 90 91 88 90 89 90 89 87 86 87 91 93 94 89 74 70 91 93 93 92 90 97 98 97 97

GFSFLT2_sfc_rhum_039.txt.gz
RH
41 40 41 44 41 40 44 44 44 49 51 50 53 55 58 59 60 62 64 64 65 67 68 73 71 69 69
48 50 50 46 44 49 45 37 40 41 48 52 54 56 58 59 60 62 62 63 65 65 66 66 68 69 70
56 50 51 51 60 57 46 42 33 45 50 52 55 58 59 58 58 59 58 59 60 61 63 65 65 67 70
63 70 67 68 59 53 48 47 50 41 50 56 55 56 57 56 59 59 59 60 61 61 62 62 64 66 67
80 80 79 61 56 49 53 59 60 65 57 55 53 54 56 57 56 57 58 59 61 63 66 67 68 72 72
90 77 70 56 51 62 74 82 89 56 60 62 58 60 56 54 55 58 60 62 64 63 65 69 71 71 71
67 60 58 57 75 84 85 81 74 65 66 81 63 62 56 48 60 61 64 66 67 68 67 70 74 75 74
50 53 58 62 83 94 74 77 72 65 62 87 65 67 61 60 64 65 66 64 62 63 65 68 70 76 83
54 60 64 60 55 61 84 89 85 72 66 76 76 80 74 72 64 59 60 62 67 67 68 69 71 76 85
62 58 51 51 57 58 76 97 93 89 71 88 89 86 91 70 78 70 69 68 67 70 69 71 75 90 97
56 53 55 60 62 66 72 92 96 93 74 83 95 90 93 90 78 77 76 77 77 79 78 76 77 84 98
62 69 73 78 80 80 80 84 87 95 89 90 96 96 95 92 87 77 78 81 85 88 88 84 82 85 88
79 83 82 84 85 86 85 85 86 85 85 86 94 95 96 95 93 88 84 83 86 92 96 93 92 91 98
83 80 80 85 85 84 93 89 92 87 80 83 87 92 96 94 94 92 84 92 87 95 91 97 85 84 89
89 90 86 86 86 84 89 94 95 90 88 83 82 84 88 94 97 88 86 88 87 87 95 95 88 84 88
89 89 92 92 91 89 88 92 94 89 90 86 88 91 85 80 70 87 82 85 86 86 92 98 92 82 82
93 92 92 93 88 91 90 91 91 88 87 87 92 95 95 91 73 66 90 90 90 92 86 89 96 88 90

GFSFLT2_sfc_rhum_042.txt.gz
RH
50 51 60 60 48 52 51 47 51 56 54 53 51 53 55 56 57 59 62 64 65 67 69 71 67 70 69
58 58 63 57 58 55 52 52 53 49 52 51 54 55 56 58 59 59 59 59 61 63 64 65 64 67 67
68 63 61 62 66 67 70 55 44 46 51 54 56 61 61 59 58 58 59 61 60 59 60 61 64 66 69
75 80 76 78 76 75 64 56 56 48 53 60 65 60 60 59 61 61 61 61 61 60 61 63 65 67 68
83 78 74 74 76 70 63 63 62 64 71 64 62 60 61 63 62 62 61 61 61 62 64 64 63 66 70
85 87 81 76 64 68 74 79 84 70 77 68 63 65 65 64 63 62 62 63 62 64 66 65 68 71 71
76 72 64 63 82 84 82 90 89 72 74 80 67 71 64 55 65 66 65 67 67 64 65 66 67 68 70
59 59 63 64 68 94 93 81 76 71 72 90 70 72 66 67 68 69 68 66 62 63 65 66 68 70 71
58 61 63 63 59 62 86 88 85 75 71 80 79 86 79 75 68 68 62 62 68 68 69 68 68 70 74
66 68 62 66 60 66 78 96 94 89 78 91 90 90 91 83 84 70 73 70 69 70 69 72 74 79 86
67 63 63 67 68 71 76 94 96 93 74 84 95 91 93 92 81 78 75 77 78 78 78 77 77 78 88
68 74 79 83 83 83 82 85 85 92 86 93 96 96 95 92 88 77 78 81 87 89 87 82 81 78 76
84 88 86 87 88 88 86 87 89 88 87 86 93 95 96 95 93 89 86 84 85 91 91 88 90 87 90
85 85 85 88 89 88 93 90 94 88 82 86 90 93 96 94 94 92 86 94 86 86 87 87 87 81 86
89 91 89 88 88 86 90 93 96 92 89 83 83 83 87 92 96 89 88 89 88 88 86 91 86 85 84
91 91 93 93 92 90 90 94 95 91 91 87 87 92 86 81 75 95 95 93 89 87 88 95 93 80 77
93 92 93 94 90 92 91 92 92 89 88 89 95 96 95 91 73 66 92 93 88 91 86 88 94 88 82

GFSFLT2_sfc_rhum_045.txt.gz
RH
62 62 68 66 59 57 58 54 55 59 59 56 55 54 55 57 57 58 63 63 64 66 70 71 71 70 69
66 71 70 70 62 62 58 53 60 61 57 54 54 56 57 60 60 63 59 62 63 64 64 63 64 68 70
74 69 72 72 75 75 74 71 55 55 53 56 57 61 64 62 61 61 61 62 62 61 60 62 62 64 66
80 84 81 70 74 82 74 67 63 48 54 58 62 65 62 61 63 63 64 65 65 63 64 67 69 71 70
92 88 76 75 82 73 75 68 65 64 66 68 76 65 64 65 63 65 67 66 64 64 67 69 70 73 72
90 82 78 77 68 69 75 80 84 69 77 80 67 68 66 67 67 66 65 67 67 68 69 70 70 70 72
83 84 83 69 79 86 88 93 89 74 76 80 68 71 65 57 65 66 68 68 68 64 66 66 66 67 68
76 70 68 67 71 83 80 80 78 70 69 88 73 74 67 68 70 70 70 68 66 63 64 67 66 68 68
60 62 64 64 61 66 84 89 87 76 70 80 81 86 78 75 68 70 64 63 65 68 70 69 68 68 73
74 68 62 69 64 68 81 95 93 91 76 93 89 90 91 90 82 75 72 71 71 70 70 70 71 76 84
61 63 64 68 70 74 81 93 96 94 75 84 95 91 94 92 82 79 76 76 77 79 76 76 77 79 89
70 76 82 86 85 85 85 89 89 94 87 92 96 95 95 92 88 78 80 81 86 90 90 83 80 78 77
86 88 87 88 90 91 88 89 91 90 89 88 95 94 96 95 92 88 87 83 84 89 94 90 89 86 90
87 86 87 90 91 89 94 91 94 88 82 86 90 93 96 94 93 92 85 93 86 88 86 85 84 83 84
91 90 88 88 88 86 90 93 96 92 90 84 84 87 90 93 96 89 88 89 87 86 88 94 87 84 81
91 91 93 93 92 90 91 95 95 90 92 89 89 91 87 82 81 93 91 91 88 88 88 94 90 82 77
94 93 92 93 91 92 92 94 92 90 89 88 94 96 95 91 72 66 93 94 90 91 89 89 93 86 80

GFSFLT2_sfc_rhum_048.txt.gz
RH
68 66 73 72 64 68 64 62 62 63 62 61 60 58 57 57 57 58 59 62 68 65 65 68 69 66 68
75 79 79 75 76 73 64 58 64 66 66 61 59 58 59 60 60 62 64 61 60 63 63 62 60 66 66
77 81 84 83 80 80 82 79 68 63 60 59 60 62 64 63 62 61 61 62 62 62 62 62 64 64 67
83 92 94 86 83 84 76 67 66 53 58 61 64 65 65 65 65 65 65 65 66 66 64 66 66 71 68
88 99 93 81 79 76 75 70 67 67 68 71 74 82 73 68 66 66 68 69 67 65 67 67 67 72 74
98 92 88 84 78 81 79 85 89 70 85 72 70 69 67 68 68 67 67 66 67 66 67 69 70 72 73
84 88 90 84 84 90 91 95 89 76 77 80 68 71 66 60 67 67 68 69 68 66 64 65 68 71 72
85 86 84 75 76 82 77 83 79 71 70 89 70 73 67 67 70 70 70 69 68 66 64 63 64 65 67
62 63 65 64 60 71 88 90 88 77 70 81 85 82 77 74 67 71 67 64 64 66 68 69 66 66 69
72 63 61 67 66 72 86 96 94 92 84 96 87 88 92 92 82 81 68 72 71 71 71 70 70 68 80
62 65 67 72 73 77 84 95 96 94 76 84 96 91 95 92 88 80 78 74 76 78 76 76 75 76 87
75 81 85 88 87 86 86 90 91 94 88 91 97 96 95 92 88 78 80 82 86 88 90 83 80 79 75
89 90 89 90 91 92 90 90 92 91 90 90 96 94 96 95 93 88 88 84 84 88 90 94 91 83 90
90 88 87 89 91 90 94 92 95 89 82 85 91 95 95 94 93 92 86 94 86 86 88 87 84 80 82
93 89 87 90 90 88 92 93 96 92 89 84 85 89 91 94 96 90 89 90 88 89 89 92 87 85 83
90 92 94 94 93 90 90 95 95 90 91 88 89 91 86 82 83 94 90 91 88 87 89 94 92 83 79
95 94 94 94 91 92 92 94 93 90 89 88 94 96 95 92 72 62 92 95 94 93 88 87 92 86 79